Voltar ao catálogo

QIANFAN-93

AtivoComunicaçõesPO
NORAD 66035·PAYLOAD·🇨🇳 China

Lançado Oct 17, 2025 de Taiyuan Satellite Launch Center

Loading…

Próximas Passagens (próximas 24 horas)

TLE

AtualizadoSource: Space-Track

Época: Sep 14, 2026, 14:48 UTC

1 66035U 25233C   26257.61710102  .00000057  00000-0  69860-4 0  9990
2 66035  89.0013  34.1765 0002245 101.1327 259.0077 13.51022859 45259

Acompanhe QIANFAN-93 em tempo real com AllMySat

Download on the App Store